QPF
0.00 0.00 0.00 0.00 0.00 0.00 0.00 0.00 0.00 0.00 0.00 0.00 0.00 0.00 0.00 0.00 0.00 0.00 0.00 0.00 0.00 0.00 0.00 0.00 0.00 0.00 0.00 0.00 0.00 0.00 0.00 0.00 0.00 0.00 0.00 0.00 0.00 0.00 0.00 0.00 0.00 0.00 0.00 0.00 0.00
0.00 0.00 0.00 0.00 0.00 0.00 0.00 0.00 0.00 0.00 0.00 0.00 0.00 0.00 0.00 0.00 0.00 0.00 0.00 0.00 0.00 0.00 0.00 0.00 0.00 0.00 0.00 0.00 0.00 0.00 0.00 0.00 0.00 0.00 0.00 0.00 0.00 0.00 0.00 0.00 0.00 0.00 0.00 0.00 0.00
0.00 0.00 0.00 0.00 0.00 0.00 0.00 0.00 0.00 0.00 0.00 0.00 0.00 0.00 0.00 0.00 0.00 0.00 0.00 0.00 0.00 0.00 0.00 0.00 0.00 0.00 0.00 0.00 0.00 0.00 0.00 0.00 0.00 0.00 0.00 0.00 0.00 0.00 0.00 0.00 0.00 0.00 0.00 0.00 0.00
0.00 0.00 0.00 0.00 0.00 0.00 0.00 0.00 0.00 0.00 0.00 0.00 0.00 0.00 0.00 0.00 0.00 0.00 0.00 0.00 0.00 0.00 0.00 0.00 0.00 0.00 0.00 0.00 0.00 0.00 0.00 0.00 0.00 0.00 0.00 0.00 0.00 0.00 0.00 0.00 0.00 0.00 0.00 0.00 0.00
0.00 0.00 0.00 0.00 0.00 0.00 0.00 0.00 0.00 0.00 0.00 0.00 0.00 0.00 0.00 0.00 0.00 0.00 0.00 0.00 0.00 0.00 0.00 0.00 0.00 0.00 0.00 0.00 0.00 0.00 0.00 0.00 0.00 0.00 0.00 0.00 0.00 0.00 0.00 0.00 0.00 0.00 0.00 0.00 0.00
0.00 0.00 0.00 0.00 0.00 0.00 0.00 0.00 0.00 0.00 0.00 0.00 0.00 0.00 0.00 0.00 0.00 0.00 0.00 0.00 0.00 0.00 0.00 0.00 0.00 0.00 0.00 0.00 0.00 0.00 0.00 0.00 0.00 0.00 0.00 0.00 0.00 0.00 0.00 0.00 0.00 0.00 0.00 0.00 0.00
0.00 0.00 0.00 0.00 0.00 0.00 0.00 0.00 0.00 0.00 0.00 0.00 0.00 0.00 0.00 0.00 0.00 0.00 0.00 0.00 0.00 0.00 0.00 0.00 0.00 0.00 0.00 0.00 0.00 0.00 0.00 0.00 0.00 0.00 0.00 0.00 0.00 0.00 0.00 0.00 0.00 0.00 0.00 0.00 0.00
0.00 0.00 0.00 0.00 0.00 0.00 0.00 0.00 0.00 0.00 0.00 0.00 0.00 0.00 0.00 0.00 0.00 0.00 0.00 0.00 0.00 0.00 0.00 0.00 0.00 0.00 0.00 0.00 0.00 0.00 0.00 0.00 0.00 0.00 0.00 0.00 0.00 0.00 0.00 0.00 0.00 0.00 0.00 0.00 0.00
0.00 0.00 0.00 0.00 0.00 0.00 0.00 0.00 0.00 0.00 0.00 0.00 0.00 0.00 0.00 0.00 0.00 0.00 0.00 0.00 0.00 0.00 0.00 0.00 0.00 0.00 0.00 0.00 0.00 0.00 0.00 0.00 0.00 0.00 0.00 0.00 0.00 0.00 0.00 0.00 0.00 0.00 0.00 0.00 0.00
0.00 0.00 0.00 0.00 0.00 0.00 0.00 0.00 0.00 0.00 0.00 0.00 0.00 0.00 0.00 0.00 0.00 0.00 0.00 0.00 0.00 0.00 0.00 0.00 0.00 0.00 0.00 0.00 0.00 0.00 0.00 0.00 0.00 0.00 0.00 0.00 0.00 0.00 0.00 0.00 0.00 0.00 0.00 0.00 0.00
0.00 0.00 0.00 0.00 0.00 0.00 0.00 0.00 0.00 0.00 0.00 0.00 0.00 0.00 0.00 0.00 0.00 0.00 0.00 0.00 0.00 0.00 0.00 0.00 0.00 0.00 0.00 0.00 0.00 0.00 0.00 0.00 0.00 0.00 0.00 0.00 0.00 0.00 0.00 0.00 0.00 0.00 0.00 0.00 0.00
0.00 0.00 0.00 0.00 0.00 0.00 0.00 0.00 0.00 0.00 0.00 0.00 0.00 0.00 0.00 0.00 0.00 0.00 0.00 0.00 0.00 0.00 0.00 0.00 0.00 0.00 0.00 0.00 0.00 0.00 0.00 0.00 0.00 0.00 0.00 0.00 0.00 0.00 0.00 0.00 0.00 0.00 0.00 0.00 0.00
0.00 0.00 0.00 0.00 0.00 0.00 0.00 0.00 0.00 0.00 0.00 0.00 0.00 0.00 0.00 0.00 0.00 0.00 0.00 0.00 0.00 0.00 0.00 0.00 0.00 0.00 0.00 0.00 0.00 0.00 0.00 0.00 0.00 0.00 0.00 0.00 0.00 0.00 0.00 0.00 0.00 0.00 0.00 0.00 0.00
0.00 0.00 0.00 0.00 0.00 0.00 0.00 0.00 0.00 0.00 0.00 0.00 0.00 0.00 0.00 0.00 0.00 0.00 0.00 0.00 0.00 0.00 0.00 0.00 0.00 0.00 0.00 0.00 0.00 0.00 0.00 0.00 0.00 0.00 0.00 0.00 0.00 0.00 0.00 0.00 0.00 0.00 0.00 0.00 0.00
0.00 0.00 0.00 0.01 0.01 0.00 0.00 0.00 0.00 0.01 0.00 0.00 0.00 0.00 0.00 0.00 0.00 0.00 0.00 0.00 0.00 0.00 0.00 0.00 0.00 0.00 0.00 0.00 0.00 0.00 0.00 0.00 0.00 0.00 0.00 0.00 0.00 0.00 0.00 0.00 0.00 0.00 0.00 0.00 0.00
0.00 0.00 0.00 0.00 0.00 0.00 0.00 0.00 0.00 0.02 0.01 0.00 0.00 0.00 0.00 0.00 0.00 0.00 0.00 0.00 0.00 0.00 0.00 0.00 0.00 0.00 0.00 0.00 0.00 0.00 0.00 0.00 0.00 0.00 0.00 0.00 0.00 0.00 0.00 0.00 0.00 0.00 0.00 0.00 0.00
0.00 0.00 0.00 0.00 0.00 0.00 0.00 0.00 0.01 0.01 0.00 0.00 0.00 0.00 0.00 0.00 0.00 0.00 0.00 0.00 0.00 0.00 0.00 0.00 0.00 0.00 0.00 0.00 0.00 0.00 0.00 0.00 0.00 0.00 0.00 0.00 0.00 0.00 0.00 0.00 0.00 0.00 0.00 0.00 0.00
0.00 0.00 0.00 0.00 0.00 0.00 0.00 0.00 0.00 0.00 0.00 0.00 0.00 0.00 0.00 0.00 0.00 0.00 0.00 0.00 0.00 0.00 0.00 0.00 0.00 0.00 0.00 0.00 0.00 0.00 0.00 0.00 0.00 0.00 0.00 0.00 0.00 0.00 0.00 0.00 0.00 0.00 0.00 0.00 0.00
0.00 0.00 0.00 0.00 0.00 0.00 0.00 0.00 0.00 0.00 0.00 0.00 0.00 0.00 0.00 0.00 0.00 0.00 0.00 0.00 0.00 0.00 0.00 0.00 0.00 0.00 0.00 0.00 0.00 0.00 0.00 0.00 0.00 0.00 0.00 0.00 0.00 0.00 0.00 0.00 0.00 0.00 0.00 0.00 0.00
0.00 0.00 0.00 0.00 0.00 0.01 0.00 0.00 0.00 0.00 0.00 0.00 0.00 0.00 0.00 0.00 0.00 0.00 0.00 0.00 0.00 0.00 0.00 0.00 0.00 0.00 0.00 0.00 0.00 0.00 0.00 0.00 0.00 0.00 0.00 0.00 0.00 0.00 0.00 0.00 0.00 0.00 0.00 0.00 0.00
0.00 0.00 0.00 0.00 0.00 0.01 0.00 0.00 0.00 0.00 0.00 0.00 0.00 0.00 0.00 0.00 0.00 0.00 0.00 0.00 0.00 0.00 0.00 0.00 0.00 0.00 0.00 0.00 0.00 0.00 0.00 0.00 0.00 0.00 0.00 0.00 0.00 0.00 0.00 0.00 0.00 0.00 0.00 0.00 0.00
0.00 0.00 0.00 0.01 0.01 0.00 0.00 0.00 0.00 0.00 0.00 0.00 0.00 0.00 0.00 0.00 0.00 0.00 0.00 0.00 0.00 0.00 0.00 0.00 0.00 0.00 0.00 0.00 0.00 0.00 0.00 0.00 0.00 0.00 0.00 0.00 0.00 0.00 0.00 0.00 0.00 0.00 0.00 0.00 0.00
0.00 0.00 0.00 0.01 0.01 0.00 0.00 0.00 0.00 0.00 0.00 0.00 0.01 0.00 0.00 0.00 0.00 0.00 0.00 0.00 0.00 0.00 0.00 0.00 0.00 0.00 0.00 0.00 0.00 0.00 0.00 0.00 0.00 0.00 0.00 0.00 0.00 0.00 0.00 0.00 0.00 0.00 0.00 0.00 0.00
0.00 0.00 0.00 0.00 0.00 0.00 0.00 0.00 0.00 0.00 0.00 0.00 0.00 0.00 0.00 0.00 0.00 0.00 0.00 0.00 0.00 0.00 0.00 0.00 0.00 0.00 0.00 0.00 0.00 0.00 0.00 0.00 0.00 0.00 0.00 0.00 0.00 0.00 0.00 0.00 0.00 0.00 0.00 0.00 0.00
0.00 0.00 0.01 0.00 0.00 0.00 0.00 0.00 0.00 0.00 0.00 0.00 0.00 0.00 0.01 0.00 0.00 0.00 0.00 0.00 0.00 0.00 0.00 0.00 0.00 0.00 0.00 0.00 0.00 0.00 0.00 0.00 0.00 0.00 0.00 0.00 0.00 0.00 0.00 0.00 0.00 0.00 0.00 0.00 0.00
0.00 0.00 0.00 0.00 0.00 0.00 0.00 0.00 0.00 0.01 0.01 0.00 0.00 0.00 0.00 0.00 0.00 0.00 0.00 0.00 0.00 0.00 0.00 0.00 0.00 0.00 0.00 0.00 0.00 0.00 0.00 0.00 0.00 0.00 0.00 0.00 0.00 0.00 0.00 0.00 0.00 0.00 0.00 0.00 0.00
0.00 0.00 0.00 0.00 0.00 0.00 0.00 0.00 0.00 0.00 0.00 0.00 0.00 0.00 0.00 0.00 0.00 0.00 0.00 0.00 0.00 0.00 0.00 0.00 0.00 0.00 0.00 0.00 0.00 0.00 0.00 0.00 0.00 0.00 0.00 0.00 0.00 0.00 0.00 0.00 0.00 0.00 0.00 0.00 0.00
MSLP
1019.46 1019.23 1018.91 1018.59 1018.39 1018.20 1017.98 1017.67 1017.07 1016.62 1016.32 1016.20 1015.80 1015.56 1015.23 1014.93 1014.18 1013.27 1012.27 1009.66 1009.64 1009.39 1008.97 1009.91 1010.49 1010.79 1011.16 1011.76 1011.72 1012.09 1013.03 1012.90 1011.54 1010.85 1009.20 1008.19 1007.77 1007.40 1006.86 1006.94 1006.70 1006.58 1006.58 1006.24 1006.54
1019.54 1019.19 1018.64 1018.56 1018.18 1017.93 1017.66 1017.32 1016.87 1016.53 1016.42 1016.14 1015.89 1015.56 1015.19 1014.87 1014.11 1012.45 1009.16 1008.93 1009.25 1008.84 1009.12 1009.42 1010.31 1010.92 1011.66 1011.70 1011.82 1011.99 1012.31 1011.33 1009.71 1009.24 1008.51 1008.12 1007.91 1007.57 1007.17 1006.54 1006.21 1006.53 1006.03 1006.36 1006.88
1019.49 1019.27 1019.00 1018.42 1018.12 1017.74 1017.40 1016.95 1016.58 1016.46 1016.34 1016.10 1015.95 1015.66 1015.15 1014.66 1013.64 1009.89 1007.61 1008.02 1008.57 1008.45 1008.63 1008.86 1009.36 1010.93 1011.69 1011.48 1011.29 1011.18 1010.80 1009.54 1009.03 1008.68 1008.67 1008.09 1007.52 1007.65 1007.27 1006.68 1005.89 1006.27 1005.84 1006.30 1006.84
1019.00 1018.62 1018.37 1018.16 1017.85 1017.43 1017.05 1016.88 1016.82 1016.63 1016.14 1015.91 1015.56 1015.20 1014.95 1014.66 1012.38 1008.50 1008.36 1008.60 1008.09 1008.32 1008.43 1008.57 1009.42 1010.85 1011.18 1011.17 1010.52 1010.68 1009.96 1009.08 1008.30 1008.38 1008.66 1008.10 1007.62 1007.18 1006.97 1006.07 1005.62 1005.46 1005.53 1005.96 1006.51
1019.03 1018.65 1018.26 1017.95 1017.61 1017.48 1017.24 1016.94 1016.65 1016.22 1016.00 1015.81 1015.69 1015.31 1015.02 1014.31 1011.15 1008.23 1008.21 1008.54 1008.70 1008.70 1008.24 1008.31 1008.87 1009.91 1010.11 1010.19 1010.52 1010.20 1009.09 1008.69 1008.57 1008.59 1008.12 1007.55 1007.17 1006.89 1006.27 1005.08 1005.19 1005.09 1005.11 1005.26 1005.37
1019.04 1018.73 1018.43 1018.11 1017.82 1017.40 1016.96 1016.53 1016.22 1015.80 1015.78 1015.52 1015.48 1015.29 1015.04 1012.99 1009.97 1009.01 1009.17 1008.68 1008.44 1008.68 1008.71 1008.21 1007.71 1008.43 1009.07 1009.39 1009.83 1009.41 1008.81 1008.55 1008.55 1008.63 1007.71 1007.16 1005.94 1006.58 1005.67 1004.91 1004.89 1004.78 1004.72 1004.62 1004.75
1018.74 1018.37 1017.97 1017.53 1017.04 1016.50 1016.05 1015.62 1015.34 1015.15 1015.20 1015.34 1015.18 1014.88 1013.72 1010.20 1009.50 1009.17 1009.32 1009.24 1008.68 1008.32 1008.25 1008.27 1007.86 1007.91 1008.38 1009.16 1008.98 1008.79 1008.89 1008.66 1008.37 1008.02 1007.40 1006.71 1005.47 1005.63 1004.82 1004.65 1004.61 1004.38 1004.16 1004.01 1003.95
1018.60 1018.18 1017.74 1017.27 1016.79 1016.31 1015.84 1015.46 1015.17 1014.84 1014.51 1014.39 1014.66 1014.53 1012.04 1009.96 1009.36 1009.14 1008.79 1008.60 1008.51 1008.71 1008.09 1007.86 1007.83 1008.44 1008.50 1008.63 1008.70 1009.02 1008.81 1008.42 1007.30 1007.00 1006.76 1006.80 1004.61 1005.17 1004.22 1004.42 1004.27 1003.93 1003.72 1003.47 1003.26
1018.48 1018.07 1017.65 1017.21 1016.68 1016.15 1015.65 1015.02 1014.14 1013.42 1013.19 1013.51 1014.34 1014.26 1011.11 1009.18 1008.88 1007.95 1008.24 1008.07 1007.36 1007.81 1008.18 1007.95 1007.83 1008.38 1008.62 1008.92 1009.35 1009.20 1008.72 1008.12 1007.39 1006.16 1006.53 1006.36 1005.09 1004.41 1004.06 1004.13 1003.91 1003.39 1002.96 1002.92 1002.76
1018.34 1017.89 1017.46 1016.96 1016.34 1015.81 1015.17 1014.25 1013.23 1012.99 1013.19 1013.47 1013.65 1013.77 1010.85 1008.69 1007.91 1006.64 1006.40 1006.97 1007.07 1007.36 1007.95 1008.08 1007.97 1007.96 1008.22 1008.30 1007.46 1008.50 1008.42 1007.70 1007.00 1006.09 1006.21 1006.01 1005.36 1004.41 1003.75 1003.76 1003.39 1002.91 1002.53 1002.50 1002.47
1018.07 1017.58 1017.09 1016.62 1016.22 1015.77 1015.16 1014.48 1013.64 1013.40 1013.10 1012.97 1012.69 1011.71 1009.60 1007.78 1007.05 1005.87 1005.90 1006.77 1007.13 1006.92 1007.21 1007.41 1008.01 1005.90 1005.06 1005.97 1006.59 1007.09 1007.42 1006.98 1005.73 1005.87 1006.33 1006.34 1005.49 1004.19 1003.50 1003.41 1003.07 1002.47 1002.29 1002.03 1001.87
1017.77 1017.24 1016.79 1016.35 1015.91 1015.53 1015.46 1015.29 1014.41 1014.82 1013.39 1011.86 1011.06 1010.41 1009.27 1008.28 1007.97 1006.34 1005.54 1005.77 1006.37 1005.38 1006.54 1007.08 1004.42 1004.69 1005.36 1005.85 1006.05 1006.41 1006.70 1006.21 1005.71 1006.23 1006.55 1006.18 1005.20 1003.89 1003.13 1002.68 1002.17 1001.84 1001.44 1001.19 1001.49
1017.47 1017.01 1016.53 1016.02 1015.57 1015.67 1015.74 1015.30 1014.77 1014.45 1013.70 1010.70 1008.79 1008.28 1007.68 1007.59 1007.47 1005.53 1005.40 1004.27 1004.39 1005.04 1004.72 1003.73 1002.12 1004.28 1004.85 1004.91 1005.67 1005.67 1005.53 1005.60 1005.77 1006.46 1006.37 1006.03 1004.96 1003.69 1002.20 1001.85 1001.41 1000.96 1000.75 1000.64 1000.98
1017.21 1016.71 1016.27 1015.83 1015.44 1015.73 1015.35 1014.80 1014.85 1014.45 1013.38 1009.54 1007.72 1006.47 1006.27 1006.23 1005.29 1004.15 1003.77 1003.65 1003.53 1003.75 1004.45 1003.75 1003.07 1002.95 1003.29 1003.34 1004.20 1004.41 1004.69 1005.78 1006.42 1007.39 1007.39 1006.39 1005.49 1004.33 1002.86 1002.01 1001.30 1000.35 1000.22 1000.33 1001.25
1016.78 1016.40 1016.05 1015.89 1015.89 1015.51 1015.12 1014.69 1014.45 1014.29 1012.25 1007.58 1006.17 1005.02 1005.07 1005.21 1003.84 1001.94 1002.86 1002.96 1002.64 1002.76 1003.00 1001.30 1001.51 1001.96 1001.91 1001.82 1003.28 1003.08 1004.36 1005.54 1006.61 1007.37 1007.62 1007.15 1007.06 1003.68 1003.27 1002.07 1000.89 1000.12 1000.08 1000.59 1001.64
1016.36 1015.97 1015.64 1015.38 1015.32 1014.91 1014.89 1014.84 1014.59 1014.29 1010.59 1007.16 1005.94 1005.50 1005.28 1004.87 1003.82 1002.40 1002.53 1002.92 1002.15 1002.17 1001.44 1001.16 1000.80 1001.10 1000.25 1001.84 1002.68 1003.86 1004.70 1006.15 1006.87 1007.66 1007.54 1006.85 1006.80 1003.53 1002.91 1001.42 1000.62 999.93 1000.22 1001.10 1002.13
1016.02 1015.61 1015.48 1015.28 1014.91 1014.89 1014.97 1014.92 1014.68 1012.64 1009.09 1007.87 1007.27 1006.30 1005.52 1005.17 1003.99 1003.11 1002.66 1002.46 1001.56 1001.85 1001.57 1001.33 1001.09 1000.32 1000.45 1001.46 1002.45 1003.59 1005.04 1007.01 1007.55 1007.79 1006.99 1005.77 1005.88 1002.50 1001.25 1000.43 1000.04 999.79 1000.28 1001.55 1002.44
1015.75 1015.27 1014.98 1014.67 1014.79 1014.70 1015.14 1015.02 1013.76 1011.00 1009.66 1008.62 1007.98 1006.82 1006.38 1006.00 1004.88 1004.29 1003.41 1003.07 1002.71 1001.91 1001.51 1001.48 1001.20 1000.16 999.58 1000.11 1001.29 1002.64 1003.98 1005.09 1006.68 1006.97 1006.06 1004.40 1003.55 1001.45 999.74 999.05 999.10 999.69 1000.23 1001.63 1002.59
1015.49 1015.32 1015.12 1014.56 1014.39 1014.54 1014.85 1014.37 1012.74 1011.48 1010.61 1009.53 1008.43 1007.58 1007.18 1006.81 1006.86 1005.69 1004.80 1003.98 1003.44 1002.99 1002.44 1001.20 1000.25 999.05 998.73 999.38 1000.30 1002.01 1002.64 1003.93 1005.17 1005.65 1005.60 1003.40 1001.89 1000.28 999.22 998.98 999.11 999.72 1000.64 1001.71 1002.59
1015.96 1015.55 1015.09 1014.32 1014.29 1014.39 1014.45 1013.84 1012.65 1011.66 1010.85 1010.13 1009.41 1008.80 1008.24 1007.69 1007.21 1007.14 1005.92 1005.11 1004.50 1003.91 1003.16 1001.30 1000.40 998.85 998.71 999.04 999.39 999.75 1001.60 1003.69 1004.45 1005.17 1004.86 1002.90 1001.64 999.89 998.91 998.50 998.97 999.86 1000.76 1001.87 1002.75
1016.14 1015.75 1014.90 1014.31 1014.54 1014.61 1014.53 1013.84 1012.74 1011.61 1011.02 1010.74 1010.03 1009.60 1009.06 1008.36 1007.60 1007.35 1007.09 1006.75 1005.92 1004.72 1003.43 1002.45 1001.30 999.49 998.76 997.85 998.16 999.72 1000.44 1001.71 1003.03 1003.86 1003.63 1002.97 1000.73 998.60 998.03 997.86 998.51 999.17 1000.23 1001.57 1002.47
1016.74 1016.17 1014.90 1014.38 1014.74 1014.89 1014.59 1013.88 1012.90 1011.68 1011.01 1010.74 1010.21 1009.89 1009.40 1008.81 1008.09 1007.61 1006.99 1007.55 1006.94 1006.58 1005.54 1004.23 1002.83 1000.88 998.95 997.94 997.94 998.46 999.12 999.99 1001.13 1002.13 1002.60 1001.98 999.95 997.75 997.46 997.42 998.02 998.84 999.93 1001.29 1002.34
1017.25 1016.61 1015.17 1014.89 1015.22 1015.26 1014.58 1013.76 1012.90 1011.91 1011.18 1010.79 1010.42 1009.95 1009.71 1009.28 1008.88 1007.69 1006.98 1007.13 1007.78 1007.60 1006.96 1005.72 1003.88 1002.46 1000.28 999.08 998.01 997.64 998.25 999.28 1000.15 1001.17 1001.41 1001.43 999.50 997.59 997.39 997.50 998.00 999.12 999.92 1001.13 1002.18
1017.88 1017.36 1016.45 1016.01 1016.14 1015.64 1015.06 1013.92 1012.97 1012.03 1011.40 1010.83 1010.45 1010.01 1009.88 1009.28 1008.73 1008.03 1007.32 1006.94 1007.11 1007.40 1007.32 1006.67 1005.16 1003.75 1001.40 998.88 998.18 998.35 998.37 998.76 999.55 1000.30 1000.32 999.15 998.84 997.89 997.58 997.59 998.02 998.92 1000.00 1000.87 1001.87
1018.21 1018.18 1017.65 1016.76 1016.18 1015.94 1015.59 1014.56 1013.40 1012.68 1012.08 1011.53 1010.71 1010.33 1010.21 1009.55 1008.76 1007.88 1007.58 1007.34 1006.77 1006.83 1007.65 1007.36 1006.11 1004.41 1002.39 1000.37 999.41 998.14 997.72 997.91 998.06 998.76 998.88 998.19 998.17 997.52 997.28 997.02 997.38 998.48 999.79 1000.76 1001.57
1018.47 1018.11 1017.51 1017.04 1016.39 1015.89 1015.23 1014.30 1013.66 1013.01 1012.47 1011.57 1011.09 1010.49 1010.19 1009.87 1009.17 1008.31 1008.02 1007.65 1007.01 1007.02 1007.65 1007.85 1006.74 1005.35 1002.88 1000.64 999.88 998.80 997.87 997.32 997.18 997.73 997.84 997.66 997.11 996.60 996.21 996.96 997.84 997.89 998.98 999.89 1000.61
1018.13 1017.76 1017.79 1016.82 1016.39 1016.13 1015.26 1014.48 1013.90 1013.46 1012.09 1011.53 1010.98 1010.58 1009.68 1009.13 1008.88 1008.40 1008.09 1007.70 1007.70 1007.43 1007.55 1007.88 1007.44 1006.26 1004.35 1002.16 1000.38 998.59 996.53 997.09 997.19 997.02 997.12 996.89 996.06 996.45 996.52 996.69 997.15 997.37 997.74 998.50 999.41
Thickness
5630 5632 5636 5640 5643 5646 5648 5652 5659 5666 5670 5672 5679 5684 5691 5697 5706 5717 5726 5753 5750 5753 5764 5756 5751 5749 5746 5737 5741 5735 5702 5701 5725 5728 5746 5763 5762 5770 5773 5763 5770 5773 5769 5775 5778
5625 5627 5632 5632 5636 5640 5643 5647 5653 5657 5659 5663 5667 5673 5679 5685 5693 5707 5755 5747 5743 5748 5751 5748 5735 5734 5720 5725 5726 5718 5695 5714 5748 5748 5750 5751 5755 5757 5754 5754 5765 5763 5774 5775 5770
5619 5620 5621 5626 5629 5632 5636 5641 5646 5648 5650 5653 5656 5661 5668 5675 5685 5719 5746 5746 5743 5745 5744 5746 5737 5720 5708 5717 5722 5717 5709 5744 5744 5752 5747 5747 5749 5750 5746 5743 5765 5756 5767 5767 5763
5618 5620 5621 5622 5624 5628 5630 5631 5632 5634 5640 5644 5648 5654 5658 5662 5669 5718 5728 5730 5739 5737 5734 5734 5723 5704 5702 5704 5726 5704 5721 5740 5747 5748 5736 5737 5743 5742 5745 5754 5771 5770 5765 5763 5757
5609 5611 5614 5615 5617 5616 5617 5620 5622 5627 5630 5632 5634 5638 5643 5646 5677 5712 5721 5720 5721 5723 5724 5722 5715 5707 5698 5706 5710 5700 5723 5731 5732 5729 5733 5740 5734 5736 5742 5769 5770 5768 5761 5760 5762
5600 5600 5601 5602 5603 5605 5609 5612 5615 5619 5620 5622 5622 5626 5629 5643 5687 5695 5697 5706 5711 5711 5711 5715 5719 5718 5706 5704 5699 5707 5714 5718 5717 5717 5731 5729 5739 5730 5743 5763 5757 5758 5756 5758 5762
5594 5595 5596 5598 5600 5603 5606 5609 5610 5612 5612 5611 5613 5616 5628 5665 5677 5685 5680 5686 5696 5704 5703 5710 5714 5709 5705 5698 5705 5706 5692 5700 5707 5717 5718 5735 5717 5717 5748 5750 5740 5748 5752 5755 5763
5583 5583 5583 5584 5585 5588 5591 5593 5595 5599 5602 5603 5603 5606 5628 5658 5664 5671 5678 5680 5685 5687 5698 5703 5704 5693 5689 5696 5692 5686 5686 5680 5713 5725 5724 5719 5695 5714 5743 5730 5730 5738 5746 5752 5761
5567 5566 5566 5566 5567 5569 5571 5576 5585 5594 5598 5597 5592 5593 5621 5648 5655 5667 5665 5670 5679 5678 5680 5686 5685 5676 5677 5665 5657 5662 5664 5674 5693 5728 5712 5701 5692 5717 5729 5722 5723 5738 5747 5751 5759
5553 5551 5549 5548 5549 5550 5553 5557 5569 5575 5577 5578 5581 5583 5613 5636 5649 5665 5669 5667 5669 5667 5663 5662 5661 5654 5653 5650 5650 5657 5661 5676 5685 5716 5702 5693 5687 5711 5723 5718 5725 5738 5747 5751 5754
5532 5529 5527 5524 5520 5518 5524 5526 5541 5545 5554 5556 5568 5582 5610 5628 5638 5654 5660 5652 5653 5654 5645 5651 5637 5655 5681 5681 5681 5684 5673 5673 5709 5710 5693 5682 5684 5708 5718 5717 5725 5735 5740 5748 5751
5511 5507 5502 5497 5492 5488 5484 5482 5501 5498 5513 5539 5557 5573 5591 5602 5607 5623 5646 5645 5641 5650 5649 5635 5653 5678 5671 5674 5675 5673 5669 5678 5700 5697 5686 5681 5684 5711 5720 5726 5734 5743 5749 5754 5757
5485 5479 5474 5472 5470 5465 5459 5462 5465 5469 5472 5528 5548 5565 5578 5583 5588 5614 5628 5644 5645 5638 5648 5656 5686 5669 5664 5668 5660 5667 5672 5686 5686 5682 5683 5680 5680 5703 5728 5731 5739 5747 5752 5758 5759
5466 5462 5459 5459 5455 5447 5449 5453 5447 5448 5449 5509 5530 5544 5559 5573 5589 5617 5627 5632 5636 5636 5640 5645 5670 5663 5660 5664 5670 5660 5688 5682 5676 5659 5642 5675 5640 5689 5710 5718 5733 5748 5753 5758 5754
5456 5453 5449 5442 5439 5439 5438 5441 5440 5440 5440 5515 5516 5533 5546 5560 5587 5616 5620 5623 5627 5637 5642 5657 5665 5659 5659 5670 5672 5676 5689 5677 5669 5653 5650 5659 5638 5689 5698 5709 5730 5747 5753 5754 5744
5449 5445 5441 5436 5431 5433 5430 5428 5429 5432 5452 5503 5506 5511 5521 5537 5565 5593 5599 5608 5630 5632 5649 5652 5669 5665 5678 5674 5675 5676 5668 5659 5655 5640 5615 5658 5647 5675 5691 5715 5732 5747 5755 5742 5733
5442 5437 5431 5426 5426 5422 5420 5417 5420 5420 5485 5485 5480 5497 5508 5516 5539 5569 5584 5590 5608 5606 5617 5633 5640 5665 5670 5656 5662 5660 5640 5612 5613 5610 5614 5672 5649 5693 5710 5723 5736 5744 5747 5734 5729
5434 5431 5425 5421 5416 5414 5408 5408 5414 5459 5465 5473 5478 5495 5500 5504 5519 5538 5557 5571 5591 5610 5615 5617 5614 5649 5668 5663 5651 5655 5649 5627 5615 5616 5642 5679 5653 5688 5730 5743 5743 5744 5745 5731 5726
5428 5423 5416 5413 5411 5407 5406 5409 5419 5438 5447 5455 5471 5481 5486 5495 5497 5510 5526 5550 5568 5589 5597 5610 5624 5661 5672 5673 5671 5647 5645 5658 5644 5647 5635 5669 5686 5715 5732 5733 5739 5739 5733 5729 5723
5419 5415 5406 5407 5404 5403 5404 5410 5417 5429 5437 5444 5444 5466 5460 5478 5489 5490 5508 5530 5545 5567 5583 5615 5613 5652 5660 5668 5671 5670 5668 5639 5634 5625 5625 5656 5679 5698 5723 5736 5738 5732 5730 5723 5719
5410 5405 5406 5407 5403 5400 5384 5398 5414 5429 5433 5430 5436 5445 5456 5464 5482 5484 5490 5504 5525 5552 5578 5599 5609 5633 5649 5655 5658 5650 5649 5644 5648 5630 5626 5636 5668 5716 5731 5738 5739 5738 5733 5723 5719
5401 5389 5405 5406 5403 5398 5388 5408 5416 5423 5428 5426 5434 5440 5448 5460 5467 5476 5492 5487 5513 5525 5542 5565 5583 5607 5639 5661 5675 5673 5660 5659 5659 5637 5643 5649 5670 5729 5733 5740 5741 5740 5734 5723 5716
5397 5393 5402 5402 5399 5387 5401 5412 5417 5422 5428 5427 5429 5443 5446 5452 5450 5476 5488 5494 5491 5502 5520 5546 5563 5591 5614 5642 5655 5661 5666 5667 5650 5643 5650 5640 5667 5723 5730 5736 5739 5733 5729 5721 5715
5389 5382 5383 5390 5385 5397 5399 5404 5415 5428 5419 5430 5432 5438 5436 5444 5458 5469 5483 5493 5496 5503 5514 5533 5543 5571 5607 5639 5648 5645 5656 5662 5648 5628 5647 5676 5691 5716 5722 5729 5732 5731 5725 5719 5715
5381 5372 5379 5385 5386 5390 5393 5400 5413 5414 5417 5418 5427 5434 5431 5434 5451 5462 5474 5481 5496 5503 5500 5518 5528 5568 5593 5619 5631 5651 5662 5664 5659 5663 5656 5683 5693 5706 5718 5729 5734 5729 5723 5718 5713
5376 5387 5386 5384 5394 5395 5393 5413 5412 5412 5419 5421 5424 5429 5425 5424 5441 5451 5462 5470 5484 5496 5491 5500 5518 5550 5584 5619 5625 5631 5644 5658 5668 5673 5676 5687 5691 5716 5732 5728 5724 5731 5728 5723 5719
5392 5392 5386 5396 5396 5389 5389 5408 5408 5408 5422 5422 5426 5421 5424 5435 5442 5444 5451 5463 5470 5480 5483 5493 5507 5528 5558 5590 5606 5616 5655 5655 5665 5676 5684 5679 5714 5713 5720 5724 5724 5730 5736 5733 5726